"Pseudo-MPEC" for P11CrpB

Created 2022 Dec 19 13:22:16 UT using Find_Orb

Click here for an explanation of pseudo-MPECs

 
 Astrometry: 
     P11CrpB* C2022 12 02l3ZEjZS;uj_3xkw%V#[v!M,+trrAstrometryUrbULwbB#^2uCshF51
     P11CrpB  C2022 12 02wSDTht0i!p`kredacted;hX:u/grq/u/AKSADurQ@'@n7cJ.YdyCF51
     P11CrpB  C2022 12 02yr.]jYl?ihjv/iq\@k=``T$clickd]N;9hereKn0CVm36`-%Nw!7F51
     P11CrpB  C2022 12 02frMadj!$y%B;cp1forVv%f?64-Lt:+k,92XAsv1explanationtTF51

Station data:
(F51) Pan-STARRS 1, Haleakala  (N20.707234 W156.255910)  US/Hawaii.
   Observers J. Bulger, T. Lowe, A. Schultz, M. Willman. Measurers K.
   Chambers, S. Chastel, T. de Boer, L. Denneau, J. Fairlamb, H. Flewelling,
   M. Huber, C.-C. Lin, E. Magnier, Y. Ramanjooloo, R. Wainscoat, R. Weryk.
   1.8-m Ritchey-Chrétien + CCD.

Orbital elements:  P11CrpB
   Perihelion 2022 Mar 27.68630 +/- 175 TT = 16:28:16 (JD 2459666.18630)
Epoch 2022 Dec  3.0 TT = JDT 2459916.5   Earth MOID: 0.8776      AutoNEOCP
M  56.62326842 +/- 90               (J2000 ecliptic)
n   0.22620922 +/- 0.436            Peri.   69.23735 +/- 80
a   2.66765200 +/- 3.43             Node   309.03218 +/- 22
e   0.3566357 +/- 0.242             Incl.   29.44891 +/- 39
P   4.36                   H 17.60  G  0.15   U 12.2  SR
q 1.71627181 +/- 1.19    Q 3.61903218 +/- 55.7
From 4 observations 2022 Dec. 2 (63.0 min); mean residual 0".06
Residuals in arcseconds: 
221202 F51  .01-  .08-    221202 F51  .03+  .03+    
221202 F51  .00   .11+    221202 F51  .02-  .06-    

Ephemerides (geocentric):
Date (UTC) HH   RA             Dec           delta  r     elong  mag " sig PA
---- --------  ------------   ------------  ------ ------ -----  --- --------
2022 12 19 13  09 34 47.364   +20 57 30.19  1.7843 2.5109 127.8 21.8  58d 166
2022 12 19 14  09 34 45.780   +20 57 17.33  1.7840 2.5111 127.9 21.8  58d 166
2022 12 19 15  09 34 44.193   +20 57 04.48  1.7837 2.5112 127.9 21.8  58d 166
2022 12 19 16  09 34 42.602   +20 56 51.63  1.7834 2.5114 128.0 21.8  58d 166
2022 12 19 17  09 34 41.007   +20 56 38.79  1.7831 2.5116 128.0 21.8  58d 166
2022 12 19 18  09 34 39.409   +20 56 25.95  1.7828 2.5117 128.0 21.8  58d 166
2022 12 19 19  09 34 37.807   +20 56 13.12  1.7825 2.5119 128.1 21.8  58d 166
2022 12 19 20  09 34 36.202   +20 56 00.29  1.7822 2.5121 128.1 21.8  58d 166
2022 12 19 21  09 34 34.592   +20 55 47.47  1.7819 2.5122 128.2 21.8  58d 166
2022 12 19 22  09 34 32.980   +20 55 34.66  1.7816 2.5124 128.2 21.8  58d 167
2022 12 19 23  09 34 31.363   +20 55 21.85  1.7813 2.5126 128.3 21.8  58d 167
2022 12 20 00  09 34 29.743   +20 55 09.05  1.7810 2.5127 128.3 21.8  58d 167
2022 12 20 01  09 34 28.119   +20 54 56.25  1.7807 2.5129 128.4 21.8  58d 167
2022 12 20 02  09 34 26.492   +20 54 43.46  1.7804 2.5130 128.4 21.8  58d 167
2022 12 20 03  09 34 24.861   +20 54 30.68  1.7801 2.5132 128.5 21.8  58d 167
2022 12 20 04  09 34 23.227   +20 54 17.90  1.7798 2.5134 128.5 21.8  58d 167
2022 12 20 05  09 34 21.588   +20 54 05.12  1.7795 2.5135 128.6 21.8  58d 167
2022 12 20 06  09 34 19.947   +20 53 52.35  1.7792 2.5137 128.6 21.8  58d 167
2022 12 20 07  09 34 18.301   +20 53 39.59  1.7789 2.5139 128.7 21.8  58d 167
2022 12 20 08  09 34 16.652   +20 53 26.83  1.7786 2.5140 128.7 21.8  58d 167
2022 12 20 09  09 34 14.999   +20 53 14.08  1.7783 2.5142 128.8 21.8  58d 167
2022 12 20 10  09 34 13.343   +20 53 01.34  1.7780 2.5144 128.8 21.8  58d 167
2022 12 20 11  09 34 11.683   +20 52 48.60  1.7777 2.5145 128.9 21.8  58d 167
2022 12 20 12  09 34 10.019   +20 52 35.86  1.7774 2.5147 128.9 21.8  58d 167
2022 12 20 13  09 34 08.352   +20 52 23.13  1.7771 2.5149 128.9 21.8  58d 167
2022 12 20 14  09 34 06.681   +20 52 10.41  1.7768 2.5150 129.0 21.8  58d 167
2022 12 20 15  09 34 05.007   +20 51 57.69  1.7766 2.5152 129.0 21.8  58d 167
2022 12 20 16  09 34 03.329   +20 51 44.98  1.7763 2.5153 129.1 21.8  58d 167
2022 12 20 17  09 34 01.647   +20 51 32.28  1.7760 2.5155 129.1 21.8  58d 167
2022 12 20 18  09 33 59.962   +20 51 19.58  1.7757 2.5157 129.2 21.8  58d 167
2022 12 20 19  09 33 58.273   +20 51 06.88  1.7754 2.5158 129.2 21.8  58d 167
2022 12 20 20  09 33 56.580   +20 50 54.19  1.7751 2.5160 129.3 21.8  58d 167
2022 12 20 21  09 33 54.884   +20 50 41.51  1.7748 2.5162 129.3 21.8  58d 167
2022 12 20 22  09 33 53.184   +20 50 28.83  1.7745 2.5163 129.4 21.8  58d 167
2022 12 20 23  09 33 51.481   +20 50 16.16  1.7742 2.5165 129.4 21.8  58d 167
2022 12 21 00  09 33 49.774   +20 50 03.49  1.7739 2.5167 129.5 21.8  58d 167
2022 12 21 01  09 33 48.063   +20 49 50.83  1.7736 2.5168 129.5 21.8  58d 167
2022 12 21 02  09 33 46.349   +20 49 38.17  1.7733 2.5170 129.6 21.8  58d 167
2022 12 21 03  09 33 44.631   +20 49 25.52  1.7730 2.5171 129.6 21.8  58d 167
2022 12 21 04  09 33 42.910   +20 49 12.88  1.7727 2.5173 129.7 21.8  58d 167
2022 12 21 05  09 33 41.185   +20 49 00.24  1.7724 2.5175 129.7 21.8  58d 167
2022 12 21 06  09 33 39.456   +20 48 47.60  1.7722 2.5176 129.8 21.8  58d 167
2022 12 21 07  09 33 37.724   +20 48 34.97  1.7719 2.5178 129.8 21.8  58d 167
2022 12 21 08  09 33 35.988   +20 48 22.35  1.7716 2.5180 129.9 21.8  58d 167
2022 12 21 09  09 33 34.248   +20 48 09.73  1.7713 2.5181 129.9 21.8  58d 167
2022 12 21 10  09 33 32.505   +20 47 57.12  1.7710 2.5183 129.9 21.8  58d 167
2022 12 21 11  09 33 30.758   +20 47 44.51  1.7707 2.5185 130.0 21.8  58d 167
2022 12 21 12  09 33 29.008   +20 47 31.91  1.7704 2.5186 130.0 21.8  58d 167